SCP
0 0 0 0 0 0 0 0 0 0 0 0 0 0 0 0 0 0 0 0 0 0 0 0 0 0 0 0 0 0 0 0 0 0 0 0 0 0
0 0 0 0 0 0 0 0 0 0 0 0 0 0 0 0 0 0 0 0 0 0 0 0 0 0 0 0 0 0 0 0 0 0 0 0 0 0
0 0 0 0 0 0 0 0 0 0 0 0 0 0 0 0 0 0 0 0 0 0 0 0 0 0 0 0 0 0 0 0 0 0 0 0 0 0
0 0 0 0 0 0 0 0 0 0 0 0 0 0 0 0 0 0 0 0 0 0 0 0 0 0 0 0 0 0 0 0 0 0 0 0 0 0
0 0 0 0 0 0 0 0 0 0 0 0 0 0 0 0 0 0 0 0 0 0 0 0 0 0 0 0 0 0 0 0 0 0 0 0 0 0
0 0 0 0 0 0 0 0 0 0 0 0 0 0 0 0 0 0 0 0 0 0 0 0 0 0 0 0 0 0 0 0 0 0 0 0 0 0
0 0 0 0 0 0 0 0 0 0 0 0 0 0 0 0 0 0 0 0 0 0 0 0 0 0 0 0 0 0 0 0 0 0 0 0 0 0
0 0 0 0 0 0 0 0 0 0 0 0 0 0 0 0 0 0 0 0 0 0 0 0 0 0 0 0 0 0 0 0 0 0 0 0 0 0
0 0 0 0 0 0 0 0 0 0 0 0 0 0 0 0 0 0 0 0 0 0 0 0 0 0 0 0 0 0 0 0 0 0 0 0 0 0
0 0 0 0 0 0 0 0 0 0 0 0 0 0 0 0 0 0 0 0 0 0 0 0 0 0 0 0 0 0 0 0 0 0 0 0 0 0
0 0 0 0 0 0 0 0 0 0 0 0 0 0 0 0 0 0 0 0 0 0 0 0 0 0 0 0 0 0 0 0 0 0 0 0 0 0
0 0 0 0 0 0 0 0 0 0 0 0 0 0 0 0 0 0 0 0 0 0 0 0 0 0 0 0 0 0 0 0 0 0 0 0 0 0
0 0 0 0 0 0 0 0 0 0 0 0 0 0 0 0 0 0 0 0 0 0 0 0 0 0 0 0 0 0 0 0 0 0 0 0 0 0
0 0 0 0 0 0 0 0 0 0 0 0 0 0 0 0 0 0 0 0 0 0 0 0 0 0 0 0 0 0 0 0 0 0 0 0 0 0
0 0 0 0 0 0 0 0 0 0 0 0 0 0 0 0 0 0 0 0 0 0 0 0 0 0 0 0 0 0 0 0 0 0 0 0 0 0
0 0 0 0 0 0 0 0 0 0 0 0 0 0 0 0 0 0 0 0 0 0 0 0 0 0 0 0 0 0 0 0 0 0 0 0 0 0
0 0 0 0 0 0 0 0 0 0 0 0 0 0 0 0 0 0 0 0 0 0 0 0 0 0 0 0 0 0 0 0 0 0 0 0 0 0
0 0 0 0 0 0 0 0 0 0 0 0 0 0 0 0 0 0 0 0 0 0 0 0 0 0 0 0 0 0 0 0 0 0 0 0 0 0
0 0 0 0 0 0 0 0 0 0 0 0 0 0 0 0 0 0 0 0 0 0 0 0 0 0 0 0 0 0 0 0 0 0 0 0 0 0
0 0 0 0 0 0 0 0 0 0 0 0 0 0 0 0 0 0 0 0 0 0 0 0 0 0 0 0 0 0 0 0 0 0 0 0 0 0
0 0 0 0 0 0 0 0 0 0 0 0 0 0 0 0 0 0 0 0 0 0 0 0 0 0 0 0 0 0 0 0 0 0 0 0 0 0
0 0 0 0 0 0 0 0 0 0 0 0 0 0 0 0 0 0 0 0 0 0 0 0 0 0 0 0 0 0 0 0 0 0 0 0 0 0
0 0 0 0 0 0 0 0 0 0 0 0 0 0 0 0 0 0 0 0 0 0 0 0 0 0 0 0 0 0 0 0 0 0 0 0 0 0
Wind_Speed_500mb
102 102 103 100 102 98 97 99 98 76 88 101 94 94 87 81 79 79 82 84 88 92 91 83 69 68 57 46 48 42 37 35 31 28 25 22 20 16
97 102 105 102 105 110 110 104 102 111 104 108 110 107 100 98 94 88 82 84 93 100 104 95 81 77 73 54 52 48 42 39 34 31 29 25 21 16
95 97 100 99 107 107 102 108 109 111 117 113 105 105 105 105 107 106 98 91 97 108 107 97 89 87 78 64 55 53 47 43 38 34 30 27 25 21
95 101 96 87 101 112 104 110 112 106 115 118 108 106 102 96 94 101 104 105 107 113 112 105 101 92 85 74 61 57 50 47 40 37 34 29 27 25
90 93 107 100 101 102 104 120 115 108 116 121 119 110 108 97 100 103 105 108 109 107 105 115 117 99 92 84 69 61 54 49 44 41 37 34 30 29
80 82 89 99 107 104 110 115 116 108 117 119 116 111 107 105 100 100 106 107 105 98 92 110 111 100 97 87 73 66 58 51 48 43 41 37 35 34
78 88 81 75 67 72 85 90 81 79 88 100 107 104 104 102 104 105 102 99 98 93 87 107 105 97 99 89 79 71 62 52 51 46 43 40 38 36
52 53 52 59 67 74 68 68 72 81 96 90 85 93 96 101 99 98 92 84 80 86 92 106 112 112 103 96 86 75 64 54 51 46 44 41 40 38
45 47 47 44 49 53 53 54 50 49 56 67 81 85 87 90 87 87 87 87 90 85 83 100 116 109 102 92 85 76 63 58 52 46 44 42 40 39
44 48 52 52 55 60 62 64 65 64 65 69 69 68 74 77 82 79 72 75 77 71 70 87 103 109 100 89 82 74 64 64 61 55 43 42 40 40
33 35 40 43 44 48 56 62 62 61 68 69 68 66 63 63 65 57 64 61 66 68 70 79 95 96 91 86 82 73 70 63 57 56 43 42 41 41
41 39 37 39 43 47 53 58 64 60 61 57 59 59 60 54 49 47 49 60 67 60 82 89 81 101 72 76 72 70 61 58 56 51 42 42 45 40
48 47 45 43 44 46 49 51 55 56 53 53 52 49 45 40 40 42 45 45 56 70 66 90 84 99 74 78 71 61 55 54 51 45 43 44 39 38
50 49 48 43 42 46 46 48 49 45 39 41 41 36 31 25 30 39 43 52 55 60 56 84 93 107 91 73 80 61 52 52 52 52 50 44 42 38
52 49 47 48 45 39 39 37 36 35 36 35 32 29 26 22 28 37 45 46 50 51 46 63 86 101 83 78 76 74 68 57 52 49 45 36 35 36
55 54 48 44 43 41 37 34 36 37 36 36 35 31 25 19 20 27 37 42 45 39 45 59 52 69 83 62 55 71 74 62 67 54 43 37 35 34
49 43 43 45 43 41 38 36 35 37 37 35 35 31 22 13 13 22 31 39 44 50 58 42 45 62 61 51 53 58 74 54 61 52 43 40 35 31
46 48 48 47 47 48 45 41 38 37 40 36 32 25 16 7 16 24 32 37 46 48 55 52 46 49 44 33 31 52 65 47 42 44 37 33 31 29
50 50 46 45 45 44 43 42 42 40 36 34 31 23 10 7 13 22 25 29 42 43 44 46 45 45 52 53 47 44 48 41 36 45 39 31 26 23
48 49 47 44 42 40 40 40 39 37 34 30 25 18 5 4 13 18 21 32 40 42 41 36 35 39 47 59 60 46 30 32 35 32 31 25 22 21
45 44 44 43 41 40 40 39 38 35 30 25 23 16 6 6 13 15 19 26 35 42 45 45 38 34 30 33 48 47 42 38 31 25 24 25 26 25
42 42 43 42 40 39 37 37 36 33 29 25 20 18 14 9 12 15 19 27 33 37 40 40 39 39 35 31 35 38 38 33 30 29 29 26 21 18
42 41 39 39 38 35 34 35 34 33 31 30 26 24 22 20 22 26 32 34 35 36 36 36 33 28 26 30 30 32 30 33 29 25 23 21 20 20
Wind_Direction_500mb
260 263 266 269 270 272 270 268 268 266 270 277 277 280 279 277 275 271 266 261 250 241 238 233 228 234 227 222 233 234 235 236 240 241 242 243 247 246
263 265 267 271 271 271 269 272 271 267 262 271 273 274 274 275 275 273 269 266 257 245 238 230 225 224 231 213 226 230 232 233 235 237 237 240 240 231
264 266 269 273 273 273 275 273 271 271 265 274 279 278 275 273 272 271 270 264 258 247 237 229 223 224 225 208 217 226 229 230 233 236 234 231 224 217
268 267 270 278 276 273 273 273 272 274 275 272 280 278 278 280 279 273 270 265 260 250 234 227 225 226 218 212 210 224 227 229 230 234 232 230 226 231
279 278 264 277 269 279 275 272 272 278 276 272 273 276 274 276 273 268 266 260 256 250 237 231 227 223 217 216 207 217 224 230 230 232 233 232 232 232
267 269 270 268 271 276 272 272 274 276 270 266 274 273 271 271 267 263 262 260 255 251 241 232 227 223 219 217 208 211 218 228 231 232 234 233 231 232
263 266 267 261 263 264 265 263 260 264 267 266 270 269 266 265 268 272 262 259 253 252 240 228 222 219 215 215 210 209 214 223 234 232 233 233 231 231
287 283 283 280 277 275 274 270 270 271 266 265 271 269 269 271 272 269 263 248 240 250 241 230 218 214 212 212 210 208 213 219 233 233 234 234 231 231
290 290 286 288 289 284 282 282 282 283 284 279 273 269 269 270 274 273 266 260 260 252 233 216 216 216 213 214 210 208 212 217 222 234 234 232 229 228
297 297 295 291 288 287 286 287 288 290 288 286 283 281 274 271 271 276 276 260 242 240 228 209 212 212 211 210 209 210 211 218 225 222 229 227 229 225
330 322 317 311 306 307 303 300 294 293 290 286 281 280 273 272 272 264 248 236 225 221 214 212 204 204 206 204 206 209 212 220 230 221 216 226 221 221
351 345 342 336 333 326 320 317 312 307 300 294 283 281 279 276 270 264 257 243 228 206 208 205 205 198 188 200 203 208 208 218 223 213 209 219 223 218
351 350 351 343 335 327 321 318 317 315 312 306 301 296 288 278 271 263 256 250 241 226 224 205 201 192 190 185 194 202 209 213 207 200 203 213 202 204
358 353 348 339 337 331 323 323 320 317 320 317 313 313 312 300 273 255 247 239 242 247 233 211 204 199 193 182 182 191 196 200 200 194 196 199 205 202
4 357 349 343 337 336 335 333 332 335 338 337 336 334 322 302 273 249 239 232 230 225 225 218 212 201 194 192 186 186 182 191 197 195 196 203 204 206
3 358 353 349 348 347 344 351 356 357 357 356 348 338 324 297 267 248 234 218 220 200 197 197 206 209 196 205 200 187 193 184 188 187 194 203 198 197
359 349 355 358 360 1 2 360 4 3 4 5 357 345 325 295 242 218 215 208 202 178 174 156 179 192 192 190 185 193 191 187 187 186 194 203 202 202
1 9 10 9 7 6 7 8 10 11 6 6 4 349 324 250 198 185 190 187 179 168 177 183 183 173 174 156 187 188 181 178 174 190 197 205 208 209
9 12 9 9 10 8 10 12 9 9 8 9 10 1 329 236 193 177 175 174 161 154 153 159 166 174 166 149 155 174 179 175 178 185 192 195 207 215
15 18 18 16 14 10 9 13 13 11 11 13 14 17 18 176 159 155 147 158 156 151 148 150 158 167 172 159 152 157 164 189 185 182 188 199 209 215
16 18 19 20 19 19 18 18 14 14 15 26 29 31 53 167 169 162 154 159 159 154 147 144 144 147 140 143 154 159 166 169 181 183 192 199 208 213
16 16 17 18 19 21 21 25 24 27 31 33 46 66 74 92 135 133 134 140 147 147 139 134 137 139 143 137 157 169 170 170 177 189 192 198 204 212
19 18 16 16 19 22 28 33 35 40 45 52 59 72 87 106 113 119 124 132 136 134 132 132 131 130 143 148 155 153 166 177 180 188 199 209 218 222
Wind_Speed_850mb
102 102 103 100 102 98 97 99 98 76 88 101 94 94 87 81 79 79 82 84 88 92 91 83 69 68 57 46 48 42 37 35 31 28 25 22 20 16
97 102 105 102 105 110 110 104 102 111 104 108 110 107 100 98 94 88 82 84 93 100 104 95 81 77 73 54 52 48 42 39 34 31 29 25 21 16
95 97 100 99 107 107 102 108 109 111 117 113 105 105 105 105 107 106 98 91 97 108 107 97 89 87 78 64 55 53 47 43 38 34 30 27 25 21
95 101 96 87 101 112 104 110 112 106 115 118 108 106 102 96 94 101 104 105 107 113 112 105 101 92 85 74 61 57 50 47 40 37 34 29 27 25
90 93 107 100 101 102 104 120 115 108 116 121 119 110 108 97 100 103 105 108 109 107 105 115 117 99 92 84 69 61 54 49 44 41 37 34 30 29
80 82 89 99 107 104 110 115 116 108 117 119 116 111 107 105 100 100 106 107 105 98 92 110 111 100 97 87 73 66 58 51 48 43 41 37 35 34
78 88 81 75 67 72 85 90 81 79 88 100 107 104 104 102 104 105 102 99 98 93 87 107 105 97 99 89 79 71 62 52 51 46 43 40 38 36
52 53 52 59 67 74 68 68 72 81 96 90 85 93 96 101 99 98 92 84 80 86 92 106 112 112 103 96 86 75 64 54 51 46 44 41 40 38
45 47 47 44 49 53 53 54 50 49 56 67 81 85 87 90 87 87 87 87 90 85 83 100 116 109 102 92 85 76 63 58 52 46 44 42 40 39
44 48 52 52 55 60 62 64 65 64 65 69 69 68 74 77 82 79 72 75 77 71 70 87 103 109 100 89 82 74 64 64 61 55 43 42 40 40
33 35 40 43 44 48 56 62 62 61 68 69 68 66 63 63 65 57 64 61 66 68 70 79 95 96 91 86 82 73 70 63 57 56 43 42 41 41
41 39 37 39 43 47 53 58 64 60 61 57 59 59 60 54 49 47 49 60 67 60 82 89 81 101 72 76 72 70 61 58 56 51 42 42 45 40
48 47 45 43 44 46 49 51 55 56 53 53 52 49 45 40 40 42 45 45 56 70 66 90 84 99 74 78 71 61 55 54 51 45 43 44 39 38
50 49 48 43 42 46 46 48 49 45 39 41 41 36 31 25 30 39 43 52 55 60 56 84 93 107 91 73 80 61 52 52 52 52 50 44 42 38
52 49 47 48 45 39 39 37 36 35 36 35 32 29 26 22 28 37 45 46 50 51 46 63 86 101 83 78 76 74 68 57 52 49 45 36 35 36
55 54 48 44 43 41 37 34 36 37 36 36 35 31 25 19 20 27 37 42 45 39 45 59 52 69 83 62 55 71 74 62 67 54 43 37 35 34
49 43 43 45 43 41 38 36 35 37 37 35 35 31 22 13 13 22 31 39 44 50 58 42 45 62 61 51 53 58 74 54 61 52 43 40 35 31
46 48 48 47 47 48 45 41 38 37 40 36 32 25 16 7 16 24 32 37 46 48 55 52 46 49 44 33 31 52 65 47 42 44 37 33 31 29
50 50 46 45 45 44 43 42 42 40 36 34 31 23 10 7 13 22 25 29 42 43 44 46 45 45 52 53 47 44 48 41 36 45 39 31 26 23
48 49 47 44 42 40 40 40 39 37 34 30 25 18 5 4 13 18 21 32 40 42 41 36 35 39 47 59 60 46 30 32 35 32 31 25 22 21
45 44 44 43 41 40 40 39 38 35 30 25 23 16 6 6 13 15 19 26 35 42 45 45 38 34 30 33 48 47 42 38 31 25 24 25 26 25
42 42 43 42 40 39 37 37 36 33 29 25 20 18 14 9 12 15 19 27 33 37 40 40 39 39 35 31 35 38 38 33 30 29 29 26 21 18
42 41 39 39 38 35 34 35 34 33 31 30 26 24 22 20 22 26 32 34 35 36 36 36 33 28 26 30 30 32 30 33 29 25 23 21 20 20
Wind_Direction_850mb
260 263 266 269 270 272 270 268 268 266 270 277 277 280 279 277 275 271 266 261 250 241 238 233 228 234 227 222 233 234 235 236 240 241 242 243 247 246
263 265 267 271 271 271 269 272 271 267 262 271 273 274 274 275 275 273 269 266 257 245 238 230 225 224 231 213 226 230 232 233 235 237 237 240 240 231
264 266 269 273 273 273 275 273 271 271 265 274 279 278 275 273 272 271 270 264 258 247 237 229 223 224 225 208 217 226 229 230 233 236 234 231 224 217
268 267 270 278 276 273 273 273 272 274 275 272 280 278 278 280 279 273 270 265 260 250 234 227 225 226 218 212 210 224 227 229 230 234 232 230 226 231
279 278 264 277 269 279 275 272 272 278 276 272 273 276 274 276 273 268 266 260 256 250 237 231 227 223 217 216 207 217 224 230 230 232 233 232 232 232
267 269 270 268 271 276 272 272 274 276 270 266 274 273 271 271 267 263 262 260 255 251 241 232 227 223 219 217 208 211 218 228 231 232 234 233 231 232
263 266 267 261 263 264 265 263 260 264 267 266 270 269 266 265 268 272 262 259 253 252 240 228 222 219 215 215 210 209 214 223 234 232 233 233 231 231
287 283 283 280 277 275 274 270 270 271 266 265 271 269 269 271 272 269 263 248 240 250 241 230 218 214 212 212 210 208 213 219 233 233 234 234 231 231
290 290 286 288 289 284 282 282 282 283 284 279 273 269 269 270 274 273 266 260 260 252 233 216 216 216 213 214 210 208 212 217 222 234 234 232 229 228
297 297 295 291 288 287 286 287 288 290 288 286 283 281 274 271 271 276 276 260 242 240 228 209 212 212 211 210 209 210 211 218 225 222 229 227 229 225
330 322 317 311 306 307 303 300 294 293 290 286 281 280 273 272 272 264 248 236 225 221 214 212 204 204 206 204 206 209 212 220 230 221 216 226 221 221
351 345 342 336 333 326 320 317 312 307 300 294 283 281 279 276 270 264 257 243 228 206 208 205 205 198 188 200 203 208 208 218 223 213 209 219 223 218
351 350 351 343 335 327 321 318 317 315 312 306 301 296 288 278 271 263 256 250 241 226 224 205 201 192 190 185 194 202 209 213 207 200 203 213 202 204
358 353 348 339 337 331 323 323 320 317 320 317 313 313 312 300 273 255 247 239 242 247 233 211 204 199 193 182 182 191 196 200 200 194 196 199 205 202
4 357 349 343 337 336 335 333 332 335 338 337 336 334 322 302 273 249 239 232 230 225 225 218 212 201 194 192 186 186 182 191 197 195 196 203 204 206
3 358 353 349 348 347 344 351 356 357 357 356 348 338 324 297 267 248 234 218 220 200 197 197 206 209 196 205 200 187 193 184 188 187 194 203 198 197
359 349 355 358 360 1 2 360 4 3 4 5 357 345 325 295 242 218 215 208 202 178 174 156 179 192 192 190 185 193 191 187 187 186 194 203 202 202
1 9 10 9 7 6 7 8 10 11 6 6 4 349 324 250 198 185 190 187 179 168 177 183 183 173 174 156 187 188 181 178 174 190 197 205 208 209
9 12 9 9 10 8 10 12 9 9 8 9 10 1 329 236 193 177 175 174 161 154 153 159 166 174 166 149 155 174 179 175 178 185 192 195 207 215
15 18 18 16 14 10 9 13 13 11 11 13 14 17 18 176 159 155 147 158 156 151 148 150 158 167 172 159 152 157 164 189 185 182 188 199 209 215
16 18 19 20 19 19 18 18 14 14 15 26 29 31 53 167 169 162 154 159 159 154 147 144 144 147 140 143 154 159 166 169 181 183 192 199 208 213
16 16 17 18 19 21 21 25 24 27 31 33 46 66 74 92 135 133 134 140 147 147 139 134 137 139 143 137 157 169 170 170 177 189 192 198 204 212
19 18 16 16 19 22 28 33 35 40 45 52 59 72 87 106 113 119 124 132 136 134 132 132 131 130 143 148 155 153 166 177 180 188 199 209 218 222